EA1FBN Weather Reports


time (UTC)temp
C
wind
direction
speed
KPH
gust
KPH
rain 1hr
cm
rain 24hr
cm
rain mn
cm
humidity
%
barometer
mb
20260510234443 8 45 1.6 6.4 0.00 0.30 0.00 76 1014.0
20260510233944 8 30 1.6 3.2 0.00 0.30 0.00 76 1013.9
20260510233443 8 347 1.6 6.4 0.00 0.30 0.00 76 1013.9
20260510232944 8 349 1.6 4.8 0.00 0.30 0.00 76 1013.9
20260510232444 8 330 1.6 4.8 0.00 0.30 0.00 76 1013.9
20260510231944 8 339 1.6 3.2 0.00 0.30 0.00 76 1013.9
20260510231444 8 347 1.6 3.2 0.00 0.30 0.00 76 1013.8
20260510230944 8 342 3.2 6.4 0.00 0.30 0.00 76 1013.7
20260510230444 8 347 3.2 8.0 0.00 0.30 0.00 76 1013.8
20260510225944 8 340 3.2 4.8 0.00 0.30 0.00 76 1013.7
20260510225444 8 349 3.2 4.8 0.00 0.30 0.00 76 1013.7
20260510224944 8 338 1.6 4.8 0.00 0.30 0.00 76 1013.7
20260510224444 8 345 1.6 4.8 0.00 0.30 0.00 75 1013.6
20260510223944 8 316 0.0 3.2 0.00 0.30 0.00 75 1013.6
20260510223444 8 323 0.0 3.2 0.00 0.30 0.00 75 1013.6
20260510222944 8 335 0.0 1.6 0.00 0.30 0.00 76 1013.6
20260510222444 8 338 0.0 1.6 0.00 0.30 0.00 76 1013.6
20260510221944 8 347 0.0 1.6 0.00 0.30 0.00 76 1013.6
20260510221444 9 347 1.6 4.8 0.00 0.30 0.00 76 1013.5
20260510220944 8 334 1.6 4.8 0.00 0.30 0.00 76 1013.5
20260510220444 8 328 1.6 3.2 0.00 0.30 0.00 75 1013.4
20260510215944 8 340 3.2 4.8 0.00 0.30 0.33 76 1013.4
20260510215444 8 342 3.2 6.4 0.00 0.30 0.33 76 1013.4
20260510214944 9 341 3.2 6.4 0.00 0.30 0.33 76 1013.4
20260510214444 9 327 1.6 6.4 0.00 0.30 0.33 75 1013.4
20260510213944 9 344 1.6 4.8 0.00 0.30 0.33 75 1013.4
20260510213444 9 331 1.6 4.8 0.00 0.30 0.33 75 1013.4
20260510212944 9 324 1.6 4.8 0.00 0.30 0.33 75 1013.4
20260510212444 9 341 3.2 6.4 0.00 0.30 0.33 75 1013.3
20260510211944 9 333 4.8 6.4 0.00 0.58 0.33 75 1013.4
20260510211444 9 339 6.4 9.7 0.00 0.58 0.33 75 1013.3
20260510210944 9 335 6.4 11.3 0.00 0.58 0.33 75 1013.3
20260510210444 9 327 4.8 9.7 0.00 0.58 0.33 75 1013.3
20260510205944 9 342 3.2 6.4 0.00 0.58 0.33 75 1013.3
20260510205444 9 17 3.2 3.2 0.00 0.58 0.33 75 1013.1
20260510204944 9 352 3.2 4.8 0.00 0.58 0.33 75 1013.1
20260510204444 9 340 1.6 4.8 0.00 0.58 0.33 75 1013.0
20260510203944 10 354 3.2 4.8 0.00 0.58 0.33 75 1013.0
20260510203444 10 345 3.2 6.4 0.00 0.58 0.33 75 1012.9
20260510202944 10 348 1.6 6.4 0.00 0.58 0.33 75 1012.8
20260510202444 10 350 1.6 3.2 0.00 0.58 0.33 75 1012.8
20260510201944 10 335 1.6 1.6 0.00 0.64 0.33 75 1012.7
20260510201444 10 335 1.6 3.2 0.00 0.64 0.33 75 1012.6
20260510200944 10 339 1.6 4.8 0.00 0.64 0.33 74 1012.6
20260510200444 10 79 0.0 1.6 0.00 0.64 0.33 73 1012.5
20260510195944 10 103 0.0 0.0 0.00 0.64 0.33 73 1012.5
20260510195444 10 103 0.0 0.0 0.00 0.64 0.33 73 1012.5
20260510194944 10 103 0.0 0.0 0.00 0.64 0.33 73 1012.4
20260510194444 10 103 0.0 0.0 0.00 0.64 0.33 72 1012.3
20260510193944 11 103 0.0 0.0 0.00 0.64 0.33 72 1012.3
20260510193444 11 103 0.0 0.0 0.00 0.64 0.33 72 1012.3
20260510192944 11 103 0.0 0.0 0.00 0.64 0.33 72 1012.3
20260510192444 11 105 0.0 0.0 0.00 0.64 0.33 71 1012.2
20260510191944 11 105 0.0 0.0 0.00 0.64 0.33 71 1012.1
20260510191444 11 105 0.0 0.0 0.00 0.64 0.33 70 1012.1
20260510190944 12 105 0.0 0.0 0.00 0.64 0.33 70 1012.1
20260510190444 12 105 0.0 1.6 0.00 0.64 0.33 70 1012.1
20260510185944 12 105 1.6 3.2 0.00 0.64 0.33 69 1012.1
20260510185444 12 115 3.2 6.4 0.00 0.64 0.33 68 1012.0
20260510184944 12 106 3.2 6.4 0.00 0.64 0.33 67 1011.9
20260510184444 12 116 3.2 6.4 0.00 0.64 0.33 67 1011.9
20260510183945 13 143 3.2 4.8 0.00 0.64 0.33 67 1011.9
20260510183445 12 134 4.8 8.0 0.00 0.64 0.33 67 1011.9
20260510182945 12 120 6.4 9.7 0.00 0.64 0.33 67 1011.9
20260510182445 12 116 6.4 11.3 0.00 0.64 0.33 67 1011.8
20260510181945 12 114 8.0 11.3 0.00 0.64 0.33 67 1011.8
20260510181445 12 101 8.0 12.9 0.00 0.64 0.33 67 1011.7
20260510180945 12 120 6.4 11.3 0.00 0.64 0.33 67 1011.7
20260510180445 12 116 8.0 11.3 0.00 0.64 0.33 67 1011.7
20260510175945 12 105 9.7 16.1 0.00 0.64 0.33 67 1011.6
20260510175445 12 118 9.7 14.5 0.00 0.64 0.33 66 1011.6
20260510174945 12 117 12.9 19.3 0.00 0.64 0.33 66 1011.6
20260510174445 12 131 14.5 20.9 0.00 0.64 0.33 65 1011.6
20260510173945 12 117 12.9 20.9 0.00 0.64 0.33 65 1011.6
20260510173445 12 94 12.9 20.9 0.00 0.64 0.33 67 1011.5
20260510172945 11 101 12.9 24.1 0.00 0.64 0.33 68 1011.5
20260510172445 11 127 16.1 24.1 0.00 0.64 0.33 69 1011.6
20260510171945 12 135 19.3 33.8 0.00 0.64 0.33 69 1011.5
20260510171445 12 122 19.3 37.0 0.00 0.64 0.33 65 1011.6
20260510170945 13 98 22.5 30.6 0.00 0.64 0.33 62 1011.4
20260510170445 13 94 20.9 30.6 0.00 0.64 0.33 59 1011.2
20260510165945 13 94 16.1 30.6 0.00 0.64 0.33 60 1011.2
20260510165445 13 112 11.3 22.5 0.00 0.64 0.33 66 1011.2
20260510164945 12 101 12.9 19.3 0.00 0.64 0.33 67 1011.2
20260510164445 12 90 14.5 24.1 0.00 0.64 0.33 66 1011.2
20260510163945 12 102 17.7 27.4 0.00 0.64 0.33 67 1011.3
20260510163445 12 96 22.5 27.4 0.00 0.64 0.33 66 1011.3
20260510162945 12 96 25.7 37.0 0.00 0.64 0.33 66 1011.3
20260510162445 12 96 29.0 40.2 0.00 0.64 0.33 64 1011.3
20260510161945 12 104 29.0 40.2 0.05 0.64 0.33 68 1011.2
20260510161445 12 103 25.7 49.9 0.18 0.64 0.33 69 1011.2
20260510160945 12 119 19.3 35.4 0.18 0.64 0.33 67 1011.0
20260510160445 12 112 14.5 27.4 0.18 0.64 0.33 67 1011.0
20260510155945 12 108 11.3 19.3 0.18 0.64 0.33 70 1011.0
20260510155445 12 155 11.3 17.7 0.18 0.64 0.33 71 1011.1
20260510154945 11 113 12.9 24.1 0.18 0.64 0.33 73 1011.2
20260510154445 11 113 9.7 25.7 0.18 0.64 0.33 73 1011.2
20260510153945 10 133 8.0 16.1 0.18 0.64 0.33 74 1011.2
20260510153445 9 132 12.9 16.1 0.18 0.64 0.33 74 1011.3
20260510152945 9 150 19.3 27.4 0.18 0.64 0.33 74 1011.3
20260510152445 9 110 24.1 32.2 0.18 0.64 0.33 75 1011.2
20260510151945 10 126 20.9 41.8 0.13 0.58 0.28 71 1011.3
20260510151445 13 132 14.5 25.7 0.00 0.46 0.15 66 1011.1
20260510150945 13 107 12.9 22.5 0.00 0.46 0.15 65 1010.6
20260510150445 13 56 11.3 19.3 0.00 0.46 0.15 64 1010.5
20260510145945 13 124 11.3 19.3 0.00 0.46 0.15 66 1010.6
20260510145445 12 139 11.3 16.1 0.00 0.46 0.15 66 1010.8
20260510144945 12 124 11.3 19.3 0.00 0.46 0.15 67 1010.9
20260510144445 12 128 11.3 19.3 0.00 0.46 0.15 67 1011.1
20260510143945 12 139 12.9 19.3 0.00 0.46 0.15 66 1011.1
20260510143445 12 161 17.7 22.5 0.00 0.46 0.15 68 1011.2
20260510142945 12 133 22.5 38.6 0.00 0.46 0.15 67 1011.2
20260510142445 13 108 20.9 38.6 0.00 0.46 0.15 61 1011.1
20260510141945 13 107 16.1 40.2 0.00 0.46 0.15 60 1011.1
20260510141445 13 58 17.7 24.1 0.00 0.46 0.15 66 1011.1
20260510140945 13 72 19.3 32.2 0.00 0.46 0.15 63 1011.2
20260510140445 13 54 17.7 32.2 0.00 0.46 0.15 64 1011.2
20260510135945 13 44 16.1 29.0 0.00 0.46 0.15 63 1011.1
20260510135445 13 67 16.1 25.7 0.00 0.46 0.15 65 1011.0
20260510134945 13 60 16.1 30.6 0.00 0.46 0.15 66 1011.2
20260510134446 13 61 14.5 32.2 0.00 0.46 0.15 66 1011.1
20260510133945 12 69 14.5 24.1 0.00 0.46 0.15 68 1011.1
20260510133446 12 39 12.9 24.1 0.00 0.46 0.15 68 1011.2
20260510132946 12 342 12.9 27.4 0.00 0.46 0.15 68 1011.2
20260510132446 12 0 16.1 20.9 0.00 0.46 0.15 68 1011.1
20260510131946 12 41 17.7 29.0 0.00 0.46 0.15 67 1011.1
20260510131446 12 41 17.7 25.7 0.00 0.46 0.15 69 1011.2
20260510130946 12 65 17.7 30.6 0.00 0.46 0.15 68 1011.3
20260510130446 12 52 14.5 27.4 0.00 0.46 0.15 68 1011.4
20260510125946 12 69 16.1 20.9 0.00 0.46 0.15 69 1011.4
20260510125446 12 72 19.3 30.6 0.00 0.46 0.15 70 1011.6
20260510124946 12 76 20.9 33.8 0.00 0.46 0.15 68 1011.6
20260510124446 12 50 20.9 32.2 0.00 0.46 0.15 67 1011.6
20260510123946 12 76 19.3 33.8 0.00 0.46 0.15 67 1011.8
20260510123446 12 58 16.1 29.0 0.03 0.46 0.15 71 1011.8
20260510122946 11 75 19.3 27.4 0.03 0.46 0.15 71 1011.9
20260510122446 11 53 20.9 32.2 0.03 0.46 0.15 70 1012.0
20260510121946 11 54 20.9 33.8 0.03 0.46 0.15 72 1012.0
20260510121446 11 88 19.3 29.0 0.03 0.46 0.15 73 1011.9
20260510120946 11 44 17.7 29.0 0.03 0.46 0.15 72 1011.8
20260510120446 11 51 17.7 29.0 0.03 0.46 0.15 72 1011.6
20260510115946 11 75 17.7 29.0 0.03 0.46 0.15 72 1011.7
20260510115446 11 49 17.7 27.4 0.03 0.46 0.15 72 1011.8
20260510114946 11 65 19.3 30.6 0.03 0.46 0.15 73 1011.9
20260510114446 11 77 17.7 29.0 0.03 0.46 0.15 73 1012.1
20260510113946 11 53 14.5 25.7 0.03 0.46 0.15 75 1011.9
20260510113446 11 41 12.9 22.5 0.00 0.43 0.13 75 1011.9
20260510112946 11 49 9.7 22.5 0.00 0.43 0.13 75 1011.9
20260510112446 10 27 6.4 22.5 0.00 0.43 0.13 74 1011.9
20260510111946 10 60 6.4 16.1 0.00 0.43 0.13 75 1011.9
20260510111446 9 48 3.2 11.3 0.00 0.43 0.13 72 1011.9
20260510110946 9 4 3.2 8.0 0.00 0.43 0.13 71 1011.9
20260510110446 8 352 3.2 11.3 0.00 0.43 0.13 70 1012.1
20260510105946 8 70 3.2 9.7 0.00 0.43 0.13 70 1012.0
20260510105446 8 70 4.8 9.7 0.00 0.43 0.13 69 1012.1
20260510104946 8 304 8.0 19.3 0.00 0.43 0.13 69 1012.3
20260510104446 8 89 11.3 17.7 0.00 0.43 0.13 68 1012.8
20260510103946 8 43 11.3 19.3 0.00 0.43 0.13 67 1012.9
20260510103446 8 89 14.5 19.3 0.00 0.43 0.13 67 1012.9
20260510102946 7 105 17.7 27.4 0.00 0.43 0.13 65 1013.0
20260510102446 7 79 20.9 33.8 0.00 0.43 0.13 63 1013.0
20260510101946 7 96 20.9 30.6 0.00 0.43 0.13 61 1013.1
20260510101446 7 113 20.9 29.0 0.00 0.43 0.13 61 1013.0
20260510100946 7 91 24.1 35.4 0.05 0.43 0.13 62 1012.8
20260510100446 7 105 27.4 35.4 0.05 0.43 0.13 63 1012.6
20260510095946 7 98 24.1 41.8 0.05 0.43 0.13 63 1012.7
20260510095446 8 110 16.1 40.2 0.05 0.43 0.13 62 1012.6
20260510094946 8 94 14.5 29.0 0.05 0.43 0.13 62 1012.5
20260510094446 8 106 11.3 20.9 0.05 0.43 0.13 63 1012.1
20260510093946 8 77 9.7 20.9 0.08 0.43 0.13 64 1011.9
20260510093446 8 160 11.3 20.9 0.08 0.43 0.13 64 1011.6
20260510092946 8 129 11.3 17.7 0.08 0.43 0.13 64 1011.6
20260510092446 8 116 12.9 17.7 0.08 0.43 0.13 67 1011.5
20260510091946 9 124 11.3 20.9 0.08 0.43 0.13 70 1011.4
20260510091446 10 120 11.3 19.3 0.08 0.43 0.13 72 1011.6
20260510090946 10 129 8.0 17.7 0.03 0.38 0.08 74 1011.4
20260510090446 10 96 6.4 11.3 0.03 0.38 0.08 74 1011.4
20260510085946 10 72 6.4 12.9 0.03 0.38 0.08 75 1011.5
20260510085446 10 75 4.8 14.5 0.03 0.38 0.08 74 1011.4
20260510084946 10 54 3.2 8.0 0.03 0.38 0.08 73 1011.4
20260510084446 10 56 3.2 8.0 0.03 0.38 0.08 74 1011.4
20260510083946 10 342 4.8 9.7 0.00 0.36 0.05 74 1011.5
20260510083446 10 352 4.8 9.7 0.00 0.36 0.05 74 1011.4
20260510082947 10 341 3.2 12.9 0.03 0.36 0.05 74 1011.4
20260510082447 10 0 4.8 8.0 0.03 0.36 0.05 74 1011.3
20260510081947 10 323 4.8 11.3 0.03 0.36 0.05 74 1011.3
20260510081447 10 345 4.8 11.3 0.03 0.36 0.05 74 1011.3
20260510080947 10 300 4.8 12.9 0.03 0.36 0.05 73 1011.1
20260510080447 10 316 6.4 12.9 0.03 0.36 0.05 73 1011.3
20260510075947 10 322 6.4 14.5 0.03 0.36 0.05 72 1011.5
20260510075447 10 354 3.2 12.9 0.03 0.36 0.05 69 1011.5
20260510074947 10 316 1.6 6.4 0.03 0.36 0.05 66 1011.4
20260510074447 10 293 1.6 4.8 0.03 0.36 0.05 65 1011.4
20260510073947 10 25 1.6 8.0 0.03 0.36 0.05 64 1011.4
20260510073447 10 53 1.6 8.0 0.03 0.36 0.05 64 1011.5
20260510072947 9 330 1.6 4.8 0.00 0.33 0.03 64 1011.5
20260510072447 9 330 1.6 8.0 0.00 0.33 0.03 65 1011.5
20260510071947 9 351 1.6 6.4 0.00 0.38 0.03 65 1011.6
20260510071447 9 25 0.0 6.4 0.00 0.38 0.03 65 1011.5
20260510070947 9 77 0.0 1.6 0.00 0.38 0.03 64 1011.5
20260510070447 9 51 0.0 4.8 0.00 0.38 0.03 63 1011.5
20260510065947 9 352 0.0 1.6 0.00 0.38 0.03 62 1011.5
20260510065447 9 348 0.0 1.6 0.00 0.38 0.03 61 1011.4
20260510064947 8 350 1.6 3.2 0.00 0.38 0.03 61 1011.3
20260510064447 8 320 1.6 3.2 0.00 0.38 0.03 61 1011.3
20260510063947 8 330 1.6 4.8 0.00 0.38 0.03 61 1011.4
20260510063447 8 302 3.2 8.0 0.00 0.38 0.03 62 1011.4
20260510062947 8 301 3.2 11.3 0.00 0.38 0.03 62 1011.5
20260510062447 8 309 3.2 8.0 0.00 0.38 0.03 62 1011.4
20260510061947 8 302 1.6 6.4 0.00 0.38 0.03 61 1011.3
20260510061447 8 308 3.2 4.8 0.00 0.38 0.03 59 1011.3
20260510060947 8 346 4.8 11.3 0.00 0.38 0.03 58 1011.4
20260510060447 8 347 3.2 6.4 0.00 0.38 0.03 57 1011.4
20260510055947 8 317 3.2 8.0 0.00 0.38 0.03 57 1011.3
20260510055447 8 332 1.6 6.4 0.00 0.38 0.03 56 1011.3
20260510054947 8 328 1.6 6.4 0.00 0.38 0.03 55 1011.3
20260510054447 8 295 1.6 3.2 0.00 0.38 0.03 55 1011.4
20260510053947 8 319 1.6 3.2 0.00 0.38 0.03 55 1011.3
20260510053447 8 353 1.6 4.8 0.00 0.38 0.03 56 1011.4
20260510052947 7 328 0.0 3.2 0.00 0.38 0.03 57 1011.3
20260510052447 7 305 0.0 1.6 0.00 0.38 0.03 57 1011.3
20260510051947 7 272 0.0 1.6 0.00 0.38 0.03 58 1011.3
20260510051447 7 272 0.0 1.6 0.00 0.38 0.03 58 1011.3
20260510050947 8 274 0.0 4.8 0.00 0.38 0.03 57 1011.3
20260510050447 8 345 0.0 1.6 0.00 0.38 0.03 57 1011.3
20260510045947 8 354 0.0 1.6 0.00 0.38 0.03 58 1011.3
20260510045447 8 319 1.6 4.8 0.00 0.38 0.03 58 1011.3
20260510044947 8 81 1.6 4.8 0.00 0.38 0.03 58 1011.3
20260510044447 8 77 1.6 6.4 0.00 0.38 0.03 58 1011.4
20260510043947 7 15 3.2 4.8 0.00 0.38 0.03 58 1011.3
20260510043447 7 53 3.2 6.4 0.00 0.38 0.03 58 1011.4
20260510042947 7 71 3.2 9.7 0.00 0.38 0.03 58 1011.3
20260510042447 7 47 3.2 9.7 0.00 0.38 0.03 58 1011.3
20260510041947 7 351 3.2 8.0 0.00 0.48 0.03 58 1011.4
20260510041447 8 47 3.2 8.0 0.00 0.48 0.03 58 1011.4
20260510040947 8 74 3.2 8.0 0.00 0.48 0.03 58 1011.4
20260510040447 8 13 3.2 9.7 0.00 0.48 0.03 58 1011.4
20260510035947 8 49 4.8 9.7 0.00 0.48 0.03 58 1011.5
20260510035447 8 1 3.2 8.0 0.00 0.48 0.03 58 1011.5
20260510034947 8 8 3.2 8.0 0.00 0.48 0.03 58 1011.4
20260510034448 8 6 4.8 9.7 0.00 0.48 0.03 58 1011.6
20260510033948 8 48 4.8 11.3 0.00 0.48 0.03 58 1011.6
20260510033447 8 51 3.2 11.3 0.00 0.48 0.03 59 1011.6
20260510032948 8 356 4.8 8.0 0.00 0.48 0.03 58 1011.6
20260510032448 8 56 4.8 12.9 0.00 0.48 0.03 58 1011.7
20260510031948 8 77 4.8 11.3 0.00 0.51 0.03 58 1011.7
20260510031448 8 51 6.4 11.3 0.00 0.51 0.03 58 1011.7
20260510030948 8 22 6.4 14.5 0.00 0.51 0.03 58 1011.7
20260510030448 8 29 6.4 14.5 0.00 0.51 0.03 57 1011.7
20260510025948 8 25 6.4 17.7 0.00 0.51 0.03 57 1011.7
20260510025448 8 9 6.4 14.5 0.00 0.51 0.03 57 1011.7
20260510024948 8 37 6.4 16.1 0.00 0.51 0.03 56 1011.8
20260510024448 8 60 4.8 14.5 0.00 0.51 0.03 56 1011.7
20260510023948 8 14 4.8 11.3 0.00 0.51 0.03 56 1011.7
20260510023448 8 338 3.2 11.3 0.00 0.51 0.03 56 1011.7
20260510022948 8 325 1.6 8.0 0.00 0.51 0.03 56 1011.7
20260510022448 8 30 1.6 6.4 0.00 0.51 0.03 57 1011.7
20260510021948 8 338 1.6 6.4 0.00 0.51 0.03 56 1011.7
20260510021448 8 4 3.2 8.0 0.00 0.51 0.03 56 1011.6
20260510020948 8 341 4.8 11.3 0.00 0.51 0.03 56 1011.7
20260510020448 8 356 4.8 9.7 0.00 0.51 0.03 55 1011.7
20260510015948 8 340 4.8 14.5 0.00 0.51 0.03 55 1011.7
20260510015448 8 16 3.2 12.9 0.00 0.51 0.03 55 1011.7
20260510014948 8 333 1.6 12.9 0.00 0.51 0.03 56 1011.7
20260510014448 8 64 0.0 1.6 0.00 0.51 0.03 56 1011.8
20260510013948 8 242 0.0 3.2 0.00 0.51 0.03 56 1011.8
20260510013448 8 293 0.0 1.6 0.00 0.51 0.03 57 1011.8
20260510012948 8 283 0.0 3.2 0.00 0.51 0.03 57 1011.8
20260510012448 8 342 0.0 1.6 0.00 0.51 0.03 57 1011.9
20260510011948 8 338 1.6 3.2 0.00 0.51 0.03 57 1011.9
20260510011448 8 348 1.6 4.8 0.00 0.51 0.03 57 1011.9
20260510010948 8 300 0.0 1.6 0.00 0.51 0.03 57 1011.9
20260510010448 8 336 0.0 6.4 0.00 0.51 0.03 57 1012.0
20260510005948 8 321 1.6 3.2 0.00 0.51 0.03 57 1012.0
20260510005448 8 334 1.6 3.2 0.00 0.51 0.03 57 1012.1
20260510004948 8 352 1.6 6.4 0.00 0.51 0.03 57 1012.1
20260510004448 8 328 1.6 6.4 0.00 0.51 0.03 57 1012.0
20260510003948 8 325 1.6 4.8 0.00 0.51 0.03 57 1012.2
20260510003448 8 320 0.0 3.2 0.00 0.51 0.03 57 1012.0
20260510002948 8 349 0.0 3.2 0.00 0.51 0.03 57 1012.1
20260510002448 8 340 1.6 4.8 0.00 0.51 0.03 56 1012.0
20260510001948 8 340 1.6 4.8 0.00 0.51 0.03 56 1011.9
20260510001448 8 338 3.2 6.4 0.00 0.51 0.03 55 1011.9
20260510000948 8 314 1.6 6.4 0.00 0.51 0.03 55 1011.9
20260510000448 8 342 1.6 4.8 0.00 0.51 0.03 55 1012.3
20260509235948 8 323 1.6 3.2 0.00 0.51 0.03 54 1012.3
20260509235448 8 345 1.6 6.4 0.00 0.51 0.03 54 1012.3
20260509234948 8 353 1.6 3.2 0.00 0.51 0.03 54 1012.3